Regional Weather Roundup
Issued by NWS Upton, NY

Current Version | Previous Version | Graphics & Text | Print | Product List | Glossary Off
Versions: 1 2 3 4 5 6 7 8 9 10 11 12 13 14 15 16 17 18 19 20 21 22 23 24 25 26 27

000
ASUS41 KOKX 201805
RWROKX

Regional Weather Roundup
National Weather Service New York NY
100 PM EST TUE FEB 20 2018

Note: "FAIR" indicates few or no clouds below 12,000 feet with no
significant weather and/or obstructions to visibility.

NYZ071-072-176-178-NJZ106-104-201900-
New York City Metro Area

CITY           SKY/WX    TMP DP  RH WIND       PRES   REMARKS
Central Park   FAIR      59  52  77 SW12G18   30.32F
Bronx Bot Gard   N/A     59  50  72 SW10      30.29F
Bronx Lehman C   N/A     59  52  77 SW7         N/A
LaGuardia Arpt PTSUNNY   60  51  72 SW12      30.29F
Queens College   N/A     59  52  77 SW12        N/A
Kennedy Intl   PTSUNNY   60  54  80 SW15      30.31F
Breezy Point     N/A     54 N/A N/A W10G17      N/A
Brooklyn Coll    N/A     59  52  77 S6          N/A
Staten Island    N/A     61  54  77 SW7         N/A
Newark/Liberty PTSUNNY   62  53  72 SW15      30.30F
Teterboro      FAIR      60  53  77 W13       30.29F
$$

NYZ177-179-078>081-201900-
Long Island New York

CITY           SKY/WX    TMP DP  RH WIND       PRES   REMARKS
Jones Beach      N/A     52 N/A N/A SW8G14      N/A
Wantagh          N/A     61  54  77 W12         N/A
Hempstead        N/A     59  54  82 S12       30.33F
Matinecock Pt    N/A     54 N/A N/A SW14        N/A
Farmingdale    FAIR      61  53  75 W14       30.30F
MacArthur/ISP  PTSUNNY   63  54  72 SW14      30.29F
Shirley        FAIR      58  53  84 S9        30.30F
Mt Sinai Harb    N/A    N/A N/A N/A W1G7        N/A
Westhampton    PTSUNNY   54  52  93 SW8       30.32F
East Hampton   CLOUDY    51  50  95 SW7       30.30F FOG
Southold         N/A     54  52  94 W3          N/A
Montauk          N/A     54  52  93 VRB6      30.31F
$$

NYZ052-065-067-201900-
Hudson Valley

CITY           SKY/WX    TMP DP  RH WIND       PRES   REMARKS
White Plains   FAIR      59  51  75 SW7       30.27F
Larchmont Harb   N/A     54 N/A N/A S14         N/A
Croton On Huds   N/A     57 N/A N/A SE9         N/A
Somers           N/A     59  52  77 SW6         N/A
Brewster         N/A     57  50  77 S3          N/A
Newburgh       MOSUNNY   61  54  77 W8        30.27F
Montgomery     FAIR      57  50  77 SW8       30.24F
Otisville        N/A     61  50  67 S7          N/A
Warwick          N/A     57  50  77 W10         N/A
Suffern          N/A     61  50  67 SW6         N/A
Poughkeepsie   FAIR      59  49  69 SW8       30.25F
Albany         PTSUNNY   56  46  69 S13       30.19F
$$

NJZ001-105-106-008-010-013-015-019>022-104-201900-
New Jersey

CITY           SKY/WX    TMP DP  RH WIND       PRES   REMARKS
Newark/Liberty PTSUNNY   62  53  72 SW15      30.30F
Teterboro      FAIR      60  53  77 W13       30.29F
Caldwell       FAIR      58  52  80 SW8       30.30F
Somerville     CLOUDY    58  55  90 CALM      30.29F
Linden         FAIR      60  57  90 W5        30.30F
Perth Amboy      N/A     57 N/A N/A SW15        N/A
Sussex         PTSUNNY   51  48  89 SW14      30.28F
Andover        NOT AVBL
Trenton        FAIR      62  56  80 SW12      30.31F
Millville      FAIR      70  58  65 SW10      30.34F
Atlantic City  FAIR      70  59  68 SW13G26   30.33F
Wrightstown    FAIR      69  56  63 W9        30.28F
Toms River     FAIR      72  58  61 W15       30.31F
Belmar         FAIR      69  56  62 SW14G21   30.31F
$$

PAZ047>061-062-071-201900-
Eastern Pennsylvania

CITY           SKY/WX    TMP DP  RH WIND       PRES   REMARKS
Philadelphia   FAIR      63  55  75 W13       30.33F
Allentown      CLOUDY    52  49  89 CALM      30.31F
Scranton       FAIR      57  50  77 SW6       30.25F
$$

CTZ002-004>006-009-010-012-RIZ004-006-007-MAZ004-011-015-201900-
Southern New England

 In CT

CITY           SKY/WX    TMP DP  RH WIND       PRES   REMARKS
Bradley Intl   PTSUNNY   59  49  69 S13       30.24F
Hartford       PTSUNNY   59  52  77 S9        30.25F
Danbury        FAIR     N/A N/A N/A SW7       30.27F
Wtrbury/Oxford FAIR      60  52  74 SW9       30.27F
Norwalk Harbor   N/A     45 N/A N/A SW13        N/A
Bridgeport     FAIR      53  49  86 SW13      30.28F
Meriden        FAIR      59  51  75 S8        30.26F
New Haven      PTSUNNY   53  49  86 SW10      30.28F FOG
Chester        CLOUDY    55  52  88 SW13      30.28F FOG
Groton         FOG       47  45  93 S6        30.29F VSB 1/4
Willimantic    PTSUNNY   63  52  67 SW7       30.26F

 In RI

CITY           SKY/WX    TMP DP  RH WIND       PRES   REMARKS
Providence     FAIR      63  54  72 W18       30.26F
Block Island   LGT RAIN  46  46 100 SW15      30.31F VSB 1/4
Westerly       FOG       49  49 100 SW7       30.30F VSB 1/4

In MA

CITY           SKY/WX    TMP DP  RH WIND       PRES   REMARKS
Boston         FAIR      65  53  65 SW13G24   30.20F
Worcester      FAIR      62  51  67 W17       30.23F
Westfield      FAIR      60  50  69 S8        30.21F
Provincetown   CLOUDY    48  46  93 SW20G26   30.24F FOG
Nantucket      FOG       46  46 100 SW20      30.31F VSB 1/4
$$

ANZ330-335-338-340-345-350-353-355-201900-
Coastal Marine Observations


STATION/POSITION TIME  SKY/WX   TEMP    WIND        PRES    VSBY  WAVE
                                AIR SEA DIR/SP/G                  HT/PER
                 (UTC)          (F)     (DEG/KT/KT) (MB)    (MI)  (FT/S)
NY Harb Entrance 1750            45 43  180/  8/  8 1026.1          3/ 5
20 S Fire Island 1750            45 42  220/ 12/ 14 1026.8          4/ 6
15 E Barnegat Li 1730               41                N/A           5/ 5
Hudson Canyon    1750            49 46  210/ 14/ 16 1028.1          5/12
Kings Point      1748            54 37  250/  8/ 10 1026.7
Execution Rocks  NOT AVBL
Western LI Sound NOT AVBL
Central LI Sound 1715            41     290/  4/  4   N/A           0
Robbins Reef     1748            58     270/ 10/ 12 1026.4
$$


>>>>>>>>>>>>>>>>>>>>>>>>>>>> KEY <<<<<<<<<<<<<<<<<<<<<<<<<<<
>                                                          <
>     SKY/WX - Sky Condition/Present Weather               <
>     TMP    - Temperature in Fahrenheit                   <
>     DP     - Dew Point in Fahrenheit                     <
>     RH     - Relative Humidity in Percent                <
>     WIND   - Direction (from) and Speed in MPH           <
>     PRES   - Mean Sea Level Pressure (inches of Hg)      <
>     WCI    - Wind Chill Index                            <
>     VSB    - Visibility in Miles                         <
>     HX     - Heat Index                                  <
>     TC     - Temperature in Celsius                      <
>     VRB    - Varibale Wind Direction                     <
>                                                          <
>>>>>>>>>>>>>>>>>>>>>>>>>>>> KEY <<<<<<<<<<<<<<<<<<<<<<<<<<<




USA.gov is the U.S. government's official web portal to all federal, state and local government web resources and services.